Location: Marsån
(66.4167°N, 22.2833°E)
Time: 12:02:25
(UTC+00:00)

ATLAS 2AS CENTAUR R/B - Pass Details

Date: 24 February 2024
Orbit: 1007 x 1204 km, 63.7° (Epoch: 07 March)

Event Time Altitude Azimuth Distance (km) Brightness Sun altitude
Rises 20:07:26 0° 284° (WNW) 3,990 6.6 -27.1°
Reaches altitude 10° 20:10:13 10° 282° (WNW) 3,000 5.7 -27.3°
Maximum altitude 20:17:10 60° 205° (SSW) 1,233 2.8 -27.8°
Enters shadow 20:17:36 58° 188° (S) 1,242 2.7 -27.8°
